Location: Unspecified
(41.5516°N, 88.1098°W)
Time: 20:56:42
(UTC-05:00)

HST - Visible Passes

Search period start: 21 August 2014 00:00
Search period end: 31 August 2014 00:00
Orbit: 547 x 551 km, 28.5° (Epoch: 20 August)

Date Brightness Start Highest point End Pass type
(mag) Time Alt. Az. Time Alt. Az. Time Alt. Az.
22 Aug 3.1 04:55:44 10° S 04:57:02 11° S 04:58:21 10° SSE visible
23 Aug 3.0 04:49:00 12° S 04:49:59 12° S 04:51:44 10° SSE visible
24 Aug 2.9 04:42:30 13° S 04:42:55 13° S 04:44:54 10° SSE visible
25 Aug 2.9 04:36:02 14° S 04:36:02 14° S 04:37:57 10° SSE visible
26 Aug 3.0 04:29:38 13° SSE 04:29:38 13° SSE 04:30:53 10° SSE visible
27 Aug 3.2 04:23:18 11° SSE 04:23:18 11° SSE 04:23:42 10° SSE visible
